Terminal Aerodrome Forecast
Issued by NWS

Home | Current Version | Previous Version | Text Only | Print | Product List | Glossary On
Versions: 1 2 3 4 5 6 7 8 9 10 11 12 13 14 15 16 17 18 19 20 21 22
000
FTUS41 KOKX 050557
TAFHPN
TAF
KHPN 050557Z 0506/0606 VRB04KT P6SM FEW250
     FM051100 30005KT P6SM FEW080 BKN120
     FM051400 32007KT P6SM SCT050 BKN100
     FM051700 VRB04KT P6SM SCT050 BKN150
     FM052000 18007KT P6SM SCT050 SCT150
     FM052300 VRB04KT P6SM BKN060
      AMD NOT SKED=

USA.gov is the U.S. government's official web portal to all federal, state and local government web resources and services.